Location: Ciply
(50.4219°N, 3.9456°E)
Time: 08:25:24
(UTC+00:00)

Daily predictions for brighter satellites

Satellite Brightness Start Highest point End
(mag) Time Altitude Azimuth Time Altitude Azimuth Time Altitude Azimuth
Cosmos 2123 Rocket 4.2 17:15:48 10° SSE 17:21:57 57° E 17:28:06 10° NNE
Okean 1 Rocket 4.0 17:21:43 10° N 17:25:29 26° ENE 17:29:11 10° SE
COSMOS 2428 2.9 17:21:48 10° NNW 17:27:27 55° NE 17:33:04 10° SE
SMAP 4.1 17:26:13 10° S 17:30:46 52° W 17:35:20 10° NNW
Cosmos 1980 4.4 17:25:53 10° NNW 17:30:59 33° NE 17:36:01 10° ESE
Sich 1 Rocket 4.5 17:27:34 10° N 17:31:34 29° ENE 17:35:33 10° SE
ARIANE 5 R/B 2.7 17:28:05 10° SSE 17:33:13 79° WSW 17:38:20 10° NNW
Cosmos 2237 Rocket 2.9 17:31:28 10° NNW 17:36:37 33° NE 17:41:43 10° ESE
Cosmos 2322 Rocket 4.4 17:31:45 10° NW 17:36:39 32° WSW 17:41:32 10° SSW
Aureole 3 Rocket 4.0 17:33:17 10° N 17:36:53 23° ENE 17:39:49 10° ESE
Cosmos 158 Rocket 4.2 17:32:27 10° S 17:37:02 44° ESE 17:41:39 10° NE
ATLAS 5 CENTAUR R/B 2.1 17:34:04 10° NW 17:38:13 69° SW 17:43:24 10° SSE
Cosmos 192 4.4 17:33:47 10° NNW 17:38:36 56° ENE 17:43:23 10° SE
SeaSat 1 2.8 17:35:31 10° SSE 17:40:23 69° WSW 17:45:18 10° NW
Cosmos 1378 Rocket 3.6 17:36:12 10° S 17:40:24 53° E 17:44:36 10° NNE
USA 234 4.3 17:35:25 10° SSE 17:41:43 48° SW 17:48:03 10° WNW
Resurs 01 Rocket 2.5 17:38:03 10° ESE 17:41:48 28° ENE 17:45:34 10° N
SKYMED 2 3.7 17:38:38 10° NNE 17:42:54 52° E 17:47:09 10° S
Cosmos 1459 Rocket 4.4 17:36:51 10° NNW 17:43:01 72° W 17:49:16 10° S
GP-B 3.0 17:40:06 10° S 17:44:27 76° E 17:48:50 10° N
Cosmos 2219 Rocket 3.4 17:41:09 10° NW 17:46:29 46° WSW 17:51:46 10° S
COSMO-SKYMED 1 3.1 17:43:23 10° NNE 17:47:09 34° E 17:50:54 10° SSE
Cosmos 2292 Rocket 2.5 17:46:58 10° S 17:49:50 87° W 17:52:53 10° N
CZ-4 R/B 4.4 17:46:41 10° SSE 17:50:39 87° W 17:54:39 10° NNW
PSLV R/B 3.8 17:47:38 10° SE 17:51:33 43° ENE 17:55:27 10° N
NOSS 3-3 (A) 4.2 17:46:57 10° S 17:51:44 40° ESE 17:57:22 10° NE
Cosmos 2322 3.7 17:46:00 10° NNW 17:51:45 86° ENE 17:57:29 10° SSE
USA 306 1.3 17:50:30 10° WNW 17:53:34 88° SSW 17:55:03 17° ESE
IRS-P3 4.4 17:48:37 10° SSE 17:53:56 77° WSW 17:59:18 10° NNW
Cosmos 2016 Rocket 4.1 17:47:46 10° N 17:54:02 90° W 18:00:21 10° S
Resurs 1-3 3.5 17:50:57 10° SSE 17:55:13 76° ENE 17:59:33 10° N
Cosmos 1802 Rocket 4.4 17:51:00 10° NNW 17:57:23 75° W 18:03:47 10° S
Cosmos 2285 Rocket 4.2 17:52:20 10° NNW 17:58:40 54° ENE 18:04:55 10° SE
Cosmos 1025 Rocket 3.3 17:54:37 10° SSE 17:58:44 46° E 18:02:54 10° NNE
Cosmos 2242 Rocket 3.8 17:54:32 10° SSW 17:58:54 73° WNW 18:03:18 10° N
SJ-7 4.2 17:55:40 10° SSE 17:59:17 56° ENE 18:02:55 10° N
SL-16 R/B 3.6 17:55:34 10° N 17:59:43 20° NE 18:02:26 15° ENE
SPOT 1/Viking Rocket 4.1 17:59:06 10° S 18:04:10 62° WSW 18:09:17 10° NNW
Cosmos 2227 Rocket 3.9 18:01:55 10° ESE 18:03:35 13° ESE 18:03:35 13° ESE
SJ-6B 3.3 18:05:30 10° SE 18:08:30 29° ENE 18:11:32 10° N
NOSS 3-4 (A) 4.0 18:02:25 10° NW 18:08:41 52° NE 18:15:10 14° ESE
NOSS 3-4 (C) 4.0 18:02:39 10° NW 18:08:58 51° NE 18:15:23 14° ESE
Cosmos 2233 Rocket 4.0 18:03:42 10° N 18:10:00 89° E 18:16:19 10° S
SPOT 5 4.0 18:08:21 17° E 18:10:36 23° ENE 18:14:32 10° N
CZ-2D R/B 3.3 18:09:12 10° SSE 18:13:06 85° WSW 18:17:07 10° NNW
Cosmos 1674 Rocket 3.5 18:10:31 10° S 18:14:53 84° E 18:19:20 10° NNE
Cosmos 1315 Rocket 3.4 18:12:17 10° NNW 18:16:01 56° W 18:19:44 10° S
Meteor 1-11 4.2 18:12:41 10° S 18:18:18 88° WNW 18:24:04 10° NNE
Cosmos 1867 3.8 18:17:12 10° SW 18:22:38 73° NW 18:27:56 11° NE
SL-16 R/B 4.5 18:18:49 10° N 18:23:52 27° NW 18:28:56 10° WSW
ATLAS 2AS CENTAUR R/B 3.9 18:18:57 10° W 18:25:11 34° NNW 18:31:15 10° NE
Cosmos 2061 Rocket 4.1 18:18:46 10° N 18:25:12 82° W 18:31:31 10° S
Cosmos 724 4.4 18:19:09 10° SW 18:25:21 85° NW 18:31:22 10° NE
Lacrosse 5 rocket 1.3 18:23:04 10° WSW 18:26:32 58° NNW 18:28:21 26° NE
CZ-4 R/B 3.1 18:28:09 15° NNE 18:28:09 15° NNE 18:29:20 10° NNE
CZ-4B R/B 4.4 18:26:46 21° ENE 18:27:08 21° NE 18:30:58 10° N
Cosmos 2151 Rocket 4.5 18:26:31 10° NNW 18:30:55 53° W 18:35:17 10° S
Meteor 2-1 Rocket 4.5 18:25:15 10° NNW 18:31:03 78° W 18:36:55 10° S
Meteor 1-31 Rocket 3.9 18:32:59 22° NNE 18:32:59 22° NNE 18:34:48 10° N
CZ-4C R/B 1.7 18:27:51 10° SW 18:32:07 81° SE 18:36:09 18° NE
Radarsat Rocket 4.3 18:29:20 10° S 18:35:09 70° WSW 18:41:24 10° NNW
IRAS Rocket 4.2 18:29:36 10° SSE 18:35:10 73° ENE 18:40:48 10° NNW
CARTOSAT-1 3.7 18:31:00 10° S 18:35:12 74° WSW 18:39:26 10° NNW
CRYOSAT 2 4.3 18:32:30 10° N 18:37:22 61° E 18:42:12 10° S
NOSS 0 Rocket 4.3 18:31:19 10° NW 18:37:32 69° WSW 18:43:42 10° SSE
USA 290 3.7 18:37:06 10° SW 18:40:05 35° WNW 18:43:01 10° N
Cosmos 1464 Rocket 4.1 18:39:20 10° N 18:45:37 55° ENE 18:51:47 10° SSE
USA 267 3.6 18:41:48 21° ENE 18:46:15 57° NNW 18:52:38 10° W
CSL-04 Debris 4.4 18:44:38 26° ESE 18:47:18 45° ENE 18:52:27 10° N
ERS-1 Rocket 4.2 18:48:49 24° NE 18:48:49 24° NE 18:51:55 10° N
Cosmos 2297 Rocket 2.2 18:42:59 10° SSW 18:48:33 60° ESE 18:52:37 19° NE
Cosmos 1607 4.1 18:42:51 10° SW 18:48:59 75° NW 18:54:10 15° NE
Cosmos 1570 Rocket 4.1 18:44:30 10° S 18:49:38 53° ESE 18:52:48 22° NE
BREEZE-M DEB (TANK) 4.2 18:46:21 10° W 18:50:03 62° SSW 18:56:52 20° ESE
CSL-04 Rocket 3.8 18:47:26 25° SE 18:50:13 49° ENE 18:55:17 10° N
Cosmos 2344 4.2 18:44:24 10° SSE 18:50:49 28° ESE 18:51:12 28° ESE
Cosmos 1455 Rocket 2.9 18:46:59 10° N 18:51:19 87° E 18:55:36 10° S
Cosmos 1975 Rocket 4.2 18:48:29 10° SSE 18:50:38 26° SSE 18:50:38 26° SSE
DNEPR-1 R/B 4.1 18:48:04 10° NW 18:52:41 53° NE 18:54:13 40° E
Cosmos 1125 Rocket 4.1 18:49:07 10° NNW 18:54:13 58° WSW 18:59:18 10° S
Cosmos 2221 Rocket 4.1 18:53:05 10° SSW 18:57:30 60° WNW 19:01:58 10° N
Meteor 1-27 4.3 18:56:24 10° NNW 19:02:12 85° W 19:08:01 10° S
PAYLOAD B 4.5 19:05:27 44° E 19:06:12 47° ENE 19:11:33 10° N
Cosmos 2208 Rocket 4.0 19:01:45 10° S 19:06:49 53° ESE 19:07:29 50° E
Terra 3.4 19:11:53 21° NNE 19:11:53 21° NNE 19:13:51 10° N
NOSS 3-3 (C) 3.8 19:07:57 10° SW 19:13:16 77° NW 19:16:44 28° NE
CZ-4B R/B 3.7 19:14:51 82° N 19:14:51 82° N 19:18:39 10° NNW
Cosmos 1980 4.3 19:09:48 10° NW 19:15:21 57° WSW 19:20:51 10° S
Meteor 2-17 Rocket 4.3 19:09:35 10° S 19:15:39 83° E 19:21:44 10° NNE
Resurs 01 Rocket 3.0 19:13:58 10° SSW 19:18:02 38° W 19:22:10 10° NNW
Cosmos 2237 Rocket 2.8 19:15:24 10° NW 19:20:57 56° WSW 19:25:52 13° S
ARIANE 6 FM1 Upper Stage 4.0 19:17:44 10° NW 19:20:14 28° N 19:20:14 28° N
COSMO-SKYMED 1 4.4 19:18:49 10° N 19:22:21 28° WNW 19:25:52 10° SW
Cosmos 44 Rocket 4.0 19:17:54 10° SSW 19:21:21 40° S 19:21:21 40° S
Cosmos 773 Rocket 3.8 19:18:52 10° SSW 19:24:07 77° ESE 19:25:06 58° NE
Cosmos 2228 3.0 19:21:23 10° NNW 19:25:32 74° W 19:25:36 73° WSW
Orbus 7S? 3.9 19:20:22 10° WNW 19:28:23 71° SW 19:28:58 63° S
Cosmos 2150 Rocket 4.0 19:27:41 10° NNW 19:32:52 74° WSW 19:33:58 54° S
Cosmos 2298 Rocket 4.0 19:28:18 10° NNW 19:33:37 77° WSW 19:34:42 56° S
NOSS 3-3 (A) 4.5 19:37:07 10° WSW 19:42:24 51° NW 19:45:03 32° NNE
SL-16 R/B 2.2 19:39:07 10° NNW 19:44:20 70° NNE 19:44:20 70° NNE
Cosmos 2227 Rocket 2.9 19:41:50 10° SSW 19:45:30 42° S 19:45:30 42° S
SPOT 5 3.3 19:47:23 53° SW 19:48:07 60° W 19:53:07 10° NNW
MOS 1 4.2 19:49:14 73° NNE 19:49:14 73° NNE 19:54:26 10° NNW
Okean O Rocket 4.3 20:02:07 11° N 20:02:07 11° N 20:02:18 10° N
NOSS 3-4 (A) 4.3 19:53:12 10° NW 19:59:47 55° SW 20:02:39 36° S
NOSS 3-4 (C) 4.3 19:53:27 10° NW 20:00:04 55° SW 20:02:53 37° S
CZ-4 R/B 3.9 20:03:09 15° NNW 20:03:09 15° NNW 20:03:59 10° NNW
Cosmos 2034 Rocket 4.1 19:55:07 10° NNW 20:01:15 69° W 20:02:53 49° SSW
Lacrosse 5 rocket 3.8 20:00:43 10° WNW 20:01:48 17° NW 20:01:48 17° NW
CZ-4B R/B 3.8 20:08:36 49° NNW 20:08:36 49° NNW 20:12:29 10° NNW
BREEZE-M DEB (TANK) 4.0 19:55:05 10° W 20:10:46 64° S 20:10:46 64° S
ADEOS 4.4 20:12:43 45° NW 20:12:43 45° NW 20:16:22 10° NNW
Cosmos 1634 Rocket 4.4 20:05:13 10° N 20:10:07 56° N 20:10:07 56° N
ATLAS 2AS CENTAUR R/B 4.0 20:12:20 10° NW 20:18:02 27° N 20:18:40 27° NNE
CZ-4C R/B 3.5 20:16:43 10° W 20:21:02 31° NNW 20:21:07 31° NNW
USA 267 3.7 20:29:08 51° N 20:29:08 51° N 20:35:04 10° WNW
Cosmos 2297 Rocket 3.8 20:27:57 10° WSW 20:32:57 31° NW 20:34:29 27° NNW
Terra 4.3 20:50:29 16° NNW 20:50:29 16° NNW 20:51:37 10° NNW
Cosmos 2344 4.4 20:56:50 10° SW 21:01:17 38° WSW 21:01:17 38° WSW
